Regional Weather Roundup
Issued by NWS

Home | Current Version | Previous Version | Text Only | Print | Product List | Glossary On
Versions: 1 2 3 4 5 6 7 8 9 10 11 12 13 14 15 16 17 18 19 20 21 22 23 24 25 26 27 28 29 30 31 32 33 34 35 36 37 38 39 40 41 42 43 44 45 46 47 48 49 50
282
ASUS43 KMKX 120820
RWRWI

WISCONSIN REGIONAL WEATHER ROUNDUP
NATIONAL WEATHER SERVICE MILWAUKEE/SULLIVAN WI
200 AM CST FRI FEB 12 2016

NOTE: "FAIR" INDICATES FEW OR NO CLOUDS BELOW 12,000 FEET WITH NO
SIGNIFICANT WEATHER AND/OR OBSTRUCTIONS TO VISIBILITY.

WIZ001-002-006>008-014>016-023>028-120900-
NORTHWEST WISCONSIN

CITY           SKY/WX    TMP DP  RH WIND       PRES   REMARKS
SUPERIOR ARPT  PTCLDY    10   1  67 NW14G25   30.18R WCI  -6
ASHLAND        CLOUDY    12   2  64 W8        30.11F WCI   0
HAYWARD        CLOUDY    12   1  61 W6G17     30.10F WCI   3
SIREN          CLOUDY    14   3  63 NW12      30.16S WCI   0
CUMBERLAND     CLOUDY    12   7  79 W9        30.12F WCI   0
RICE LAKE      CLOUDY    13   8  79 W7        30.14F WCI   3
CHETEK         CLOUDY    13   8  79 W5        30.13F WCI   5
LADYSMITH      CLOUDY    13   5  71 W7        30.11F WCI   2
EAU CLAIRE     CLOUDY    14   6  70 W8        30.15F WCI   3
MENOMONIE      CLOUDY    15   8  72 W10       30.16F WCI   2
NEW RICHMOND   CLOUDY    13   8  81 W8        30.16F WCI   2
OSCEOLA        CLOUDY    15  10  81 W7        30.20F WCI   5
$$

WIZ003>005-009-010-017-018-120900-
NORTH CENTRAL WISCONSIN

CITY           SKY/WX    TMP DP  RH WIND       PRES   REMARKS
MANITOWISH WTR CLOUDY     8   1  71 W8        30.01S WCI  -4
ARBOR VITAE    CLOUDY    11   2  67 NW8       30.01S WCI   0
WOODRUFF       CLOUDY    11   2  67 NW8       30.01S WCI   0
RHINELANDER    CLOUDY    10  -1  61 W13       30.01F WCI  -5
EAGLE RIVER    CLOUDY     9  -2  61 W9        29.99F WCI  -4
LAND O LAKES   LGT SNOW   9   2  73 W8        29.98F WCI  -3
PHILLIPS       CLOUDY    10   1  68 W5        30.04F WCI   1
TOMAHAWK       CLOUDY    10   0  65 W7        30.04F WCI  -2
MEDFORD        CLOUDY    11   2  69 W10G17    30.06F WCI  -3
MERRILL        CLOUDY    11   1  62 W10       30.07S WCI  -2
$$

WIZ029-030-035-036-043>047-120900-
CENTRAL WISCONSIN

CITY           SKY/WX    TMP DP  RH WIND       PRES   REMARKS
WAUSAU         CLOUDY    13   2  61 W13       30.06F WCI  -2
MOSINEE        CLOUDY    12   3  67 W13       30.08F WCI  -3
MARSHFIELD     CLOUDY    13   2  61 W8        30.08F WCI   2
STEVENS POINT  CLOUDY    12   1  60 W7        30.10F WCI   1
WAUPACA        CLOUDY    17   2  51 W8        30.12F WCI   6
WAUTOMA        CLOUDY    14   1  56 W5        30.13F WCI   6
WISC RAPIDS    CLOUDY    13   0  56 W8        30.13F WCI   2
CAMP DOUGLAS   CLOUDY    13   4  65 W10       30.14F WCI   0
$$

WIZ011>013-019>022-031-037>040-048>050-120900-
NORTHEAST WISCONSIN

CITY           SKY/WX    TMP DP  RH WIND       PRES   REMARKS
ANTIGO         CLOUDY    10   0  64 W9        30.02F WCI  -4
SHAWANO        CLOUDY    16   2  53 W6        30.09F WCI   8
OCONTO         CLOUDY    15   0  53 W10       30.08F WCI   2
STURGEON BAY   CLOUDY    14   0  52 W10       30.08S WCI   1
GREEN BAY      CLOUDY    15   1  53 W12       30.10F WCI   2
MANITOWOC      CLOUDY    16   3  56 W10       30.11F WCI   4
APPLETON       CLOUDY    16   1  53 W12       30.08F WCI   3
CLINTONVILLE   CLOUDY    16   1  53 W8        30.09F WCI   5
OSHKOSH        CLOUDY    15   2  56 W7        30.11F WCI   5
$$

WIZ032>034-041-042-053>061-120900-
SOUTHWEST WISCONSIN

CITY           SKY/WX    TMP DP  RH WIND       PRES   REMARKS
LA CROSSE      LGT SNOW  14   7  73 W6        30.20S WCI   5
SPARTA         FLURRIES  13   6  74 W3        30.18F
VIROQUA        CLOUDY    11   7  85 W9        30.13F WCI  -2
BOSCOBEL       CLOUDY    16   5  62 W5        30.21F WCI   9
PRAIRIE DU CHI MIX PCPN  15   4  63 W3        30.22S
PLATTEVILLE    CLOUDY    14   6  71 W5        30.17F WCI   6
$$

WIZ056-057-062-063-064-067-068-120900-
SOUTH CENTRAL WISCONSIN

CITY           SKY/WX    TMP DP  RH WIND       PRES   REMARKS
REEDSBURG      CLOUDY    14   2  59 W9        30.15F WCI   1
BARABOO/DELLS  CLOUDY    14   1  56 W8        30.14F WCI   2
LONE ROCK      CLOUDY    15   3  59 W6        30.19F WCI   6
MINERAL POINT  CLOUDY    16   5  62 W6        30.15S WCI   7
MADISON        CLOUDY    15   0  51 VRB3      30.15F
MIDDLETON      CLOUDY    17   4  58 W10G16    30.15F WCI   4
WATERTOWN      CLOUDY    17   3  55 W8        30.14F WCI   6
MONROE         CLOUDY    16   7  67 W7        30.14F WCI   6
JANESVILLE     CLOUDY    19   9  63 W3        30.17F
$$

WIZ051-052-058>065-066-070>072-120900-
SOUTHEAST WISCONSIN

CITY           SKY/WX    TMP DP  RH WIND       PRES   REMARKS
MILWAUKEE      CLOUDY    18   2  49 W13       30.15F WCI   5
WAUKESHA       CLOUDY    16   3  57 W9        30.14F WCI   4
MILWAUKEE/TIMM CLOUDY    18   3  53 W8        30.15F WCI   7
RACINE         CLOUDY    18   4  54 W14       30.16F WCI   4
BURLINGTON     CLOUDY    16   5  63 W6        30.15F WCI   7
KENOSHA        CLOUDY    18   8  65 W9        30.16F WCI   7
FOND DU LAC    CLOUDY    16   1  51 W8        30.12F WCI   5
SHEBOYGAN      CLOUDY    16   1  51 W15       30.11F WCI   1
WEST BEND      CLOUDY    16   1  53 W6        30.12F WCI   7
JUNEAU         CLOUDY    15   4  62 SW10      30.14F WCI   2
$$

LSZ147-162-120900-
LAKE SUPERIOR

STATION/POSITION TIME  TEMP    WIND        PRES    WAVE
                       AIR SEA DIR/SP/G            HT/PER
                 (UTC) (F)     (DEG/KT/KT) (MB)    (FT/S)
DEVILS ISLAND    0800   13     290/ 19/ 22 1020.8R
PORT WING        0700   14     300/ 14/ 20 1020.7S
SAXON HARBOR     0700   14                 1019.3
$$

LMZ867-665-643>646-120900-
LAKE MICHIGAN

STATION/POSITION TIME  TEMP    WIND        PRES    WAVE
                       AIR SEA DIR/SP/G            HT/PER
                 (UTC) (F)     (DEG/KT/KT) (MB)    (FT/S)
CHAMBERS ISLAND  0700   16     230/  8/ 15 1018.3F
ALGOMA LAKESHORE 0741          260/  8/ 14   N/A
KEWAUNEE LAKESHO 0700   16     270/ 11/ 14 1018.6F
SHEBOYGAN LAKESH 0800   17     250/ 11/ 13 1021.5F
PORT WASHINGTON  0700   17     270/  7/ 14 1022.0F
MILWAUKEE LAKESH 0710   19     270/ 11/ 14   N/A
KENOSHA   LAKESH 0800   19     260/ 10/ 13 1021.3F
$$

TC  - TEMPERATURE IN CELSIUS
VSB - VISIBILITY IN STATUTE MILES
WCI - WIND CHILL INDEX
HX  - HEAT INDEX





USA.gov is the U.S. government's official web portal to all federal, state and local government web resources and services.